星链-34988 (STARLINK-34988)

导读

STARLINK-34988是美国于2025年9月3日发射的星链系列卫星。星链计划是太空探索技术公司(SpaceX)打造的低轨卫星星座项目,旨在为全球提供高速互联网接入服务,尤其覆盖偏远与网络基础设施薄弱区域,该卫星的入轨将进一步扩充星链星座的服务规模与覆盖能力。

Basic Information
目录编号:
65453
目录名称:
STARLINK-34988
国际标识:
2025-194V
轨道中心:
EARTH
卫星名称:
星链-34988
卫星全名:
星链-34988 (STARLINK-34988)
卫星状态:
在轨 (已飞行366 天)
发射日期:
2025-09-03 UTC
国别 :
美国 (US)
星等 :
--
Orbit Information
数据来源 国际轨道数据 AOE轨道数据
星历时间 2026-09-04T21:41:33+0800
9小时前
查看轨道信息
2026-09-04T08:00:00+0800
22小时前
查看轨道信息
半长轴 6930.122km 6930.142km
偏心率 0.0002194 0.0002131
轨道倾角 97.296° 97.297°
近地点辐角 68.597° 67.243°
升交点赤经 98.461° 97.925°
平近点角 291.549° 84.103°
近地点 550.464km 550.528km
远地点 553.506km 553.482km
周期 95.691分钟 95.691分钟
每日圈数 15.048439 15.048375
Detailed Information
固有亮度:
5
最大亮度:
2.5
卫星平台:
Starlink V1.0
覆盖范围:
全球
运营商:
太空探索技术公司
运营商所在国:
美国
制造商(研发单位):
太空探索技术公司
制造商所在国:
美国
使用方式:
暂无
Satellite Introduction
Starlink 计划是 SpaceX 推出的全球卫星互联网项目,通过发射低轨道卫星,为全球尤其是偏远地区提供高速、低延迟的互联网服务。自 2019 年起,Starlink 已部署数千颗卫星,旨在缩小全球数字鸿沟,推动互联网普及。该项目还为军事、航空等行业提供通信支持,带来广泛经济效益。
2D Orbit Map
3D Orbit Map
Orbit Altitude Analysis Chart
Orbit Inclination Analysis Chart
Orbit Comprehensive Analysis Chart
View Comprehensive Chart
Conjunction Data List
Event ID Objects TCA Miss Dist (km) Collision Risk Probability Collision Risk Index (CRI) Action
CDM_260905-042003-771706-545323
2026-09-05T
04:20:53+0000
1.336 km
极远距离
9.675979E-6 低风险 0.55
CDM_260831-200206-387506-545321
2026-08-31T
20:02:37+0000
2.564 km
极远距离
1.165627E-6 低风险 0.36
CDM_260902-125204-860706-545321
2026-09-02T
12:52:55+0000
2.799 km
极远距离
9.346656E-7 极低风险 0.34
CDM_260906-215605-365006-545321
2026-09-06T
21:56:20+0000
2.993 km
极远距离
5.757408E-7 极低风险 0.3